Find OneWeb SL0056

NORAD ID: 45159 Int'l Des: 2020-008 Owner: ONEWEB Country: UK Constellation: oneweb operational
LEOCIRCULARPOLARONEWEB_TYPE

現在のビュー

3D地球を読み込み中...

OneWeb SL0056について

説明を読み込み中...

次回通過

Passes for default location (London). Set your location on the main map for personalized predictions.

高度履歴

Loading altitude history...

軌道要素

1 45159U 20008AE 26151.17936243 -.00000560 00000-0 -16406-2 0 9996
2 45159 87.8849 39.6461 0001778 89.0352 271.0979 13.10368836305955
Epoch: May 31, 2026 • Age: 11 hours

現在のステータス

高度 1234.0 km
速度 7.25 km/s
衛星直下点 81.27°N, 79.53°E
打ち上げ日 Feb 6, 2020
運用期間 6.3 years
タイプ internet

技術仕様

分類 Payload
質量 148.00 kg
乾燥質量 140.00 kg
総質量 148.00 kg
長さ 1.30 m
直径 1.00 m
スパン 5.00 m
形状 Trapezoid+2 pan
製造者 ONEWUS
バスタイプ ARROW
フェーズステータス In Orbit
所有者/国 ONEWEB/UK

Most Searched